Location: Lane
(33.5226°N, 79.8788°W)
Time: 04:46:29
(UTC+00:00)

SR - Pass Details

Date: 29 September 2022
Orbit: 577 x 875 km, 66.7° (Epoch: 29 November)

Event Time Altitude Azimuth Distance (km) Brightness Sun altitude
Rises 11:55:24 0° 339° (NNW) 3,299 ? 8.1°
Reaches altitude 10° 11:58:00 10° 344° (NNW) 2,320 ? 8.6°
Maximum altitude 12:03:08 50° 60° (ENE) 917 ? 9.7°
Drops below altitude 10° 12:07:49 10° 136° (SE) 2,114 ? 10.6°
Sets 12:10:05 0° 141° (SE) 2,978 ? 11.1°
